CHINASAT 2C (ZX 2C)

Last updated on Sept. 28, 2020, 5:45 a.m. UTC

1 41021U 15063A   20271.93801642 -.00000346  00000-0  00000-0 0  9992
2 41021   0.0409 110.5089 0000284 115.6141 222.1423  1.00269426 18072
UTC
Height (km)
Latitude
Longitude
Inclination
Orbital Period
UTC large
Height (km)
Speed (km/s)
/
Latitude / Longitude
Inclination (degrees)
Orbital Period (minutes)
Azimuth
Elevation
Range (km)
Doppler Factor
iOS Compass Heading
iOS Angle

Next 30 passes for location: Hong Kong

Rise time Rise Azimuth (degrees) Set time Set Azimuth (degrees) Duration Max altitude (degrees)

No matching passes for this satellites